World > North America > United States > Alabama

Hourly Hopewell, AL Regional Weather

Feedback E-mail the Weather

Latest News

Hopewell, AL Weather Maps

°F °C°F °C
Hopewell Weather Map
UTC Time: 5/26/2022, 14:37
Your Time:

Hopewell, AL Regional Weather

Expires:202205261500;;609333
ASUS44 KBMX 261410
RWRAL 
             
ALABAMA REGIONAL WEATHER ROUNDUP
NATIONAL WEATHER SERVICE BIRMINGHAM AL
900 AM CDT THU MAY 26 2022

NOTE: "FAIR" INDICATES FEW OR NO CLOUDS BELOW 12,000 FEET
WITH NO SIGNIFICANT WEATHER AND/OR OBSTRUCTIONS TO VISIBILITY.

THE REMARK "TC" DENOTES TEMPERATURE IN DEGREES CELSIUS.


ALZ015-024>026-033>036-041>044-261500-
CENTRAL ALABAMA
  
CITY           SKY/WX    TMP DP  RH WIND       PRES   REMARKS
BIRMINGHAM     PTSUNNY   71  67  87 S9G20     30.00F                  
MONTGOMERY     RAIN      71  67  87 S14       30.03R                  
SHELBY CO ARPT CLOUDY    72  67  84 S9        29.99F                  
MAXWELL AFB    NOT AVBL                                               
GREENVILLE     CLOUDY    67  67 100 SE6       30.01S                  
SELMA          DRIZZLE   70  70 100 SE9       30.00F                  
PRATTVILLE     HVY RAIN  69  69 100 SE3       30.02R                  
BESSEMER       CLOUDY    68  68 100 SE8G16    29.99F                  
TALLADEGA      PTSUNNY  N/A N/A N/A S9        30.03S                  
PELL CITY      CLOUDY    73  66  78 S9G15     30.02S                  
SYLACAUGA      CLOUDY    73  67  81 S13G23    30.02S                  
$$
 

SKY/WX - Weather  TMP - Temperature  DP - Dew Point  RH - Humidity
WIND - Wind Direction/Speed PRES - Barometric Pressure VSB - Visibility
WCI - Wind Chill Index E13G22 Wind - East Wind 13 mph/Gusts of 22 mph

Trending Headlines

Hopewell Radar Loop



Hopewell Quick Facts


National Two Day Weather Forecast


E-mail the Hopewell Weather Forecast

Voice your opinion or tell us about page issues...